Year,Month,Day,Hour,Minute,Value (Times are PST for temperature in C)
2009,04,23,00,00,5.60
2009,04,23,00,01,5.70
2009,04,23,00,02,5.70
2009,04,23,00,03,5.70
2009,04,23,00,04,5.70
2009,04,23,00,05,5.70
2009,04,23,00,06,5.70
2009,04,23,00,07,5.70
2009,04,23,00,08,5.70
2009,04,23,00,09,5.70
2009,04,23,00,10,5.70
2009,04,23,00,11,5.70
2009,04,23,00,12,5.70
2009,04,23,00,13,5.70
2009,04,23,00,14,5.70
2009,04,23,00,15,5.70
2009,04,23,00,16,5.70
2009,04,23,00,17,5.70
2009,04,23,00,18,5.70
2009,04,23,00,19,5.70
2009,04,23,00,20,5.70
2009,04,23,00,21,5.70
2009,04,23,00,22,5.70
2009,04,23,00,23,5.60
2009,04,23,00,24,5.60
2009,04,23,00,25,5.60
2009,04,23,00,26,5.60
2009,04,23,00,27,5.70
2009,04,23,00,28,5.70
2009,04,23,00,29,5.70
2009,04,23,00,30,5.70
2009,04,23,00,31,5.70
2009,04,23,00,32,5.70
2009,04,23,00,33,5.80
2009,04,23,00,34,5.80
2009,04,23,00,35,5.80
2009,04,23,00,36,5.90
2009,04,23,00,37,5.90
2009,04,23,00,38,5.90
2009,04,23,00,39,5.90
2009,04,23,00,40,5.90
2009,04,23,00,41,5.90
2009,04,23,00,42,5.90
2009,04,23,00,43,5.90
2009,04,23,00,44,5.90
2009,04,23,00,45,5.90
2009,04,23,00,46,5.90
2009,04,23,00,47,5.90
2009,04,23,00,48,5.90
2009,04,23,00,49,5.90
2009,04,23,00,50,5.90
2009,04,23,00,51,5.90
2009,04,23,00,52,5.90
2009,04,23,00,53,5.90
2009,04,23,00,54,5.90
2009,04,23,00,55,5.90
2009,04,23,00,56,5.90
2009,04,23,00,57,5.90
2009,04,23,00,58,5.90
2009,04,23,00,59,5.80
2009,04,23,01,00,5.80
2009,04,23,01,01,5.80
2009,04,23,01,02,5.80
2009,04,23,01,03,5.80
2009,04,23,01,04,5.80
2009,04,23,01,05,5.80
2009,04,23,01,06,5.80
2009,04,23,01,07,5.80
2009,04,23,01,08,5.70
2009,04,23,01,09,5.70
2009,04,23,01,10,5.70
2009,04,23,01,11,5.70
2009,04,23,01,12,5.70
2009,04,23,01,13,5.70
2009,04,23,01,14,5.70
2009,04,23,01,15,5.70
2009,04,23,01,16,5.70
2009,04,23,01,17,5.70
2009,04,23,01,18,5.70
2009,04,23,01,19,5.70
2009,04,23,01,20,5.70
2009,04,23,01,21,5.70
2009,04,23,01,22,5.70
2009,04,23,01,23,5.70
2009,04,23,01,24,5.70
2009,04,23,01,25,5.70
2009,04,23,01,26,5.70
2009,04,23,01,27,5.70
2009,04,23,01,28,5.70
2009,04,23,01,29,5.70
2009,04,23,01,30,5.70
2009,04,23,01,31,5.70
2009,04,23,01,32,5.70
2009,04,23,01,33,5.70
2009,04,23,01,34,5.70
2009,04,23,01,35,5.70
2009,04,23,01,36,5.70
2009,04,23,01,37,5.70
2009,04,23,01,38,5.70
2009,04,23,01,39,5.70
2009,04,23,01,40,5.70
2009,04,23,01,41,5.70
2009,04,23,01,42,5.70
2009,04,23,01,43,5.70
2009,04,23,01,44,5.70
2009,04,23,01,45,5.70
2009,04,23,01,46,5.70
2009,04,23,01,47,5.70
2009,04,23,01,48,5.70
2009,04,23,01,49,5.70
2009,04,23,01,50,5.70
2009,04,23,01,51,5.70
2009,04,23,01,52,5.70
2009,04,23,01,53,5.70
2009,04,23,01,54,5.70
2009,04,23,01,55,5.70
2009,04,23,01,56,5.70
2009,04,23,01,57,5.70
2009,04,23,01,58,5.70
2009,04,23,01,59,5.70
2009,04,23,02,00,5.70
2009,04,23,02,01,5.70
2009,04,23,02,02,5.70
2009,04,23,02,03,5.70
2009,04,23,02,04,5.70
2009,04,23,02,05,5.70
2009,04,23,02,06,5.70
2009,04,23,02,07,5.70
2009,04,23,02,08,5.70
2009,04,23,02,09,5.70
2009,04,23,02,10,5.70
2009,04,23,02,11,5.70
2009,04,23,02,12,5.70
2009,04,23,02,13,5.70
2009,04,23,02,14,5.70
2009,04,23,02,15,5.70
2009,04,23,02,16,5.70
2009,04,23,02,17,5.70
2009,04,23,02,18,5.70
2009,04,23,02,19,5.70
2009,04,23,02,20,5.70
2009,04,23,02,21,5.70
2009,04,23,02,22,5.70
2009,04,23,02,23,5.70
2009,04,23,02,24,5.70
2009,04,23,02,25,5.70
2009,04,23,02,26,5.70
2009,04,23,02,27,5.70
2009,04,23,02,28,5.70
2009,04,23,02,29,5.70
2009,04,23,02,30,5.70
2009,04,23,02,31,5.70
2009,04,23,02,32,5.70
2009,04,23,02,33,5.70
2009,04,23,02,34,5.70
2009,04,23,02,35,5.70
2009,04,23,02,36,5.70
2009,04,23,02,37,5.70
2009,04,23,02,38,5.70
2009,04,23,02,39,5.70
2009,04,23,02,40,5.70
2009,04,23,02,41,5.70
2009,04,23,02,42,5.70
2009,04,23,02,43,5.70
2009,04,23,02,44,5.70
2009,04,23,02,45,5.60
2009,04,23,02,46,5.60
2009,04,23,02,47,5.60
2009,04,23,02,48,5.60
2009,04,23,02,49,5.50
2009,04,23,02,50,5.50
2009,04,23,02,51,5.50
2009,04,23,02,52,5.50
2009,04,23,02,53,5.40
2009,04,23,02,54,5.40
2009,04,23,02,55,5.40
2009,04,23,02,56,5.40
2009,04,23,02,57,5.30
2009,04,23,02,58,5.30
2009,04,23,02,59,5.30
2009,04,23,03,00,5.30
2009,04,23,03,01,5.30
2009,04,23,03,02,5.30
2009,04,23,03,03,5.30
2009,04,23,03,04,5.30
2009,04,23,03,05,5.20
2009,04,23,03,06,5.20
2009,04,23,03,07,5.20
2009,04,23,03,08,5.20
2009,04,23,03,09,5.20
2009,04,23,03,10,5.30
2009,04,23,03,11,5.30
2009,04,23,03,12,5.30
2009,04,23,03,13,5.30
2009,04,23,03,14,5.30
2009,04,23,03,15,5.30
2009,04,23,03,16,5.30
2009,04,23,03,17,5.30
2009,04,23,03,18,5.20
2009,04,23,03,19,5.20
2009,04,23,03,20,5.20
2009,04,23,03,21,5.20
2009,04,23,03,22,5.20
2009,04,23,03,23,5.20
2009,04,23,03,24,5.10
2009,04,23,03,25,5.10
2009,04,23,03,26,5.10
2009,04,23,03,27,5.10
2009,04,23,03,28,5.10
2009,04,23,03,29,5.10
2009,04,23,03,30,5.10
2009,04,23,03,31,5.10
2009,04,23,03,32,5.10
2009,04,23,03,33,5.00
2009,04,23,03,34,4.90
2009,04,23,03,35,4.90
2009,04,23,03,36,4.90
2009,04,23,03,37,4.90
2009,04,23,03,38,4.90
2009,04,23,03,39,4.90
2009,04,23,03,40,4.80
2009,04,23,03,41,4.80
2009,04,23,03,42,4.80
2009,04,23,03,43,4.70
2009,04,23,03,44,4.70
2009,04,23,03,45,4.70
2009,04,23,03,46,4.60
2009,04,23,03,47,4.60
2009,04,23,03,48,4.60
2009,04,23,03,49,4.60
2009,04,23,03,50,4.50
2009,04,23,03,51,4.50
2009,04,23,03,52,4.50
2009,04,23,03,53,4.50
2009,04,23,03,54,4.40
2009,04,23,03,55,4.40
2009,04,23,03,56,4.30
2009,04,23,03,57,4.30
2009,04,23,03,58,4.20
2009,04,23,03,59,4.20
2009,04,23,04,00,4.20
2009,04,23,04,01,4.10
2009,04,23,04,02,4.10
2009,04,23,04,03,4.00
2009,04,23,04,04,4.00
2009,04,23,04,05,4.00
2009,04,23,04,06,3.90
2009,04,23,04,07,3.90
2009,04,23,04,08,3.90
2009,04,23,04,09,3.80
2009,04,23,04,10,3.80
2009,04,23,04,11,3.80
2009,04,23,04,12,3.80
2009,04,23,04,13,3.80
2009,04,23,04,14,3.80
2009,04,23,04,15,3.80
2009,04,23,04,16,3.80
2009,04,23,04,17,3.80
2009,04,23,04,18,3.70
2009,04,23,04,19,3.70
2009,04,23,04,20,3.70
2009,04,23,04,21,3.70
2009,04,23,04,22,3.70
2009,04,23,04,23,3.70
2009,04,23,04,24,3.70
2009,04,23,04,25,3.70
2009,04,23,04,26,3.70
2009,04,23,04,27,3.80
2009,04,23,04,28,3.80
2009,04,23,04,29,3.80
2009,04,23,04,30,3.80
2009,04,23,04,31,3.80
2009,04,23,04,32,3.80
2009,04,23,04,33,3.80
2009,04,23,04,34,3.80
2009,04,23,04,35,3.80
2009,04,23,04,36,3.80
2009,04,23,04,37,3.80
2009,04,23,04,38,3.80
2009,04,23,04,39,3.80
2009,04,23,04,40,3.80
2009,04,23,04,41,3.80
2009,04,23,04,42,3.80
2009,04,23,04,43,3.70
2009,04,23,04,44,3.70
2009,04,23,04,45,3.70
2009,04,23,04,46,3.70
2009,04,23,04,47,3.70
2009,04,23,04,48,3.60
2009,04,23,04,49,3.60
2009,04,23,04,50,3.60
2009,04,23,04,51,3.50
2009,04,23,04,52,3.50
2009,04,23,04,53,3.50
2009,04,23,04,54,3.50
2009,04,23,04,55,3.40
2009,04,23,04,56,3.40
2009,04,23,04,57,3.30
2009,04,23,04,58,3.30
2009,04,23,04,59,3.30
2009,04,23,05,00,3.30
2009,04,23,05,01,3.30
2009,04,23,05,02,3.30
2009,04,23,05,03,3.30
2009,04,23,05,04,3.30
2009,04,23,05,05,3.30
2009,04,23,05,06,3.20
2009,04,23,05,07,3.20
2009,04,23,05,08,3.20
2009,04,23,05,09,3.10
2009,04,23,05,10,3.10
2009,04,23,05,11,3.10
2009,04,23,05,12,3.10
2009,04,23,05,13,3.10
2009,04,23,05,14,3.10
2009,04,23,05,15,3.10
2009,04,23,05,16,3.10
2009,04,23,05,17,3.10
2009,04,23,05,18,3.10
2009,04,23,05,19,3.10
2009,04,23,05,20,3.10
2009,04,23,05,21,3.10
2009,04,23,05,22,3.10
2009,04,23,05,23,3.10
2009,04,23,05,24,3.10
2009,04,23,05,25,3.10
2009,04,23,05,26,3.10
2009,04,23,05,27,3.10
2009,04,23,05,28,3.10
2009,04,23,05,29,3.10
2009,04,23,05,30,3.10
2009,04,23,05,31,3.10
2009,04,23,05,32,3.10
2009,04,23,05,33,3.10
2009,04,23,05,34,3.10
2009,04,23,05,35,3.10
2009,04,23,05,36,3.10
2009,04,23,05,37,3.10
2009,04,23,05,38,3.10
2009,04,23,05,39,3.10
2009,04,23,05,40,3.10
2009,04,23,05,41,3.10
2009,04,23,05,42,3.10
2009,04,23,05,43,3.10
2009,04,23,05,44,3.10
2009,04,23,05,45,3.10
2009,04,23,05,46,3.10
2009,04,23,05,47,3.10
2009,04,23,05,48,3.10
2009,04,23,05,49,3.10
2009,04,23,05,50,3.10
2009,04,23,05,51,3.10
2009,04,23,05,52,3.10
2009,04,23,05,53,3.10
2009,04,23,05,54,3.10
2009,04,23,05,55,3.10
2009,04,23,05,56,3.10
2009,04,23,05,57,3.00
2009,04,23,05,58,2.90
2009,04,23,05,59,2.90
2009,04,23,06,00,2.90
2009,04,23,06,01,2.90
2009,04,23,06,02,2.90
2009,04,23,06,03,2.90
2009,04,23,06,04,2.90
2009,04,23,06,05,2.90
2009,04,23,06,06,2.90
2009,04,23,06,07,2.90
2009,04,23,06,08,2.90
2009,04,23,06,09,2.90
2009,04,23,06,10,2.90
2009,04,23,06,11,2.90
2009,04,23,06,12,2.90
2009,04,23,06,13,2.90
2009,04,23,06,14,2.80
2009,04,23,06,15,2.80
2009,04,23,06,16,2.70
2009,04,23,06,17,2.70
2009,04,23,06,18,2.70
2009,04,23,06,19,2.70
2009,04,23,06,20,2.70
2009,04,23,06,21,2.70
2009,04,23,06,22,2.70
2009,04,23,06,23,2.70
2009,04,23,06,24,2.70
2009,04,23,06,25,2.70
2009,04,23,06,26,2.70
2009,04,23,06,27,2.60
2009,04,23,06,28,2.60
2009,04,23,06,29,2.60
2009,04,23,06,30,2.60
2009,04,23,06,31,2.60
2009,04,23,06,32,2.60
2009,04,23,06,33,2.70
2009,04,23,06,34,2.70
2009,04,23,06,35,2.70
2009,04,23,06,36,2.70
2009,04,23,06,37,2.70
2009,04,23,06,38,2.70
2009,04,23,06,39,2.70
2009,04,23,06,40,2.70
2009,04,23,06,41,2.80
2009,04,23,06,42,2.80
2009,04,23,06,43,2.80
2009,04,23,06,44,2.80
2009,04,23,06,45,2.90
2009,04,23,06,46,2.90
2009,04,23,06,47,2.90
2009,04,23,06,48,2.90
2009,04,23,06,49,2.90
2009,04,23,06,50,2.90
2009,04,23,06,51,2.90
2009,04,23,06,52,2.90
2009,04,23,06,53,2.90
2009,04,23,06,54,2.90
2009,04,23,06,55,2.90
2009,04,23,06,56,2.90
2009,04,23,06,57,2.90
2009,04,23,06,58,3.10
2009,04,23,06,59,3.10
2009,04,23,07,00,3.10
2009,04,23,07,01,3.10
2009,04,23,07,02,3.10
2009,04,23,07,03,3.10
2009,04,23,07,04,3.10
2009,04,23,07,05,3.10
2009,04,23,07,06,3.10
2009,04,23,07,07,3.10
2009,04,23,07,08,3.10
2009,04,23,07,09,3.20
2009,04,23,07,10,3.20
2009,04,23,07,11,3.20
2009,04,23,07,12,3.20
2009,04,23,07,13,3.20
2009,04,23,07,14,3.20
2009,04,23,07,15,3.20
2009,04,23,07,16,3.20
2009,04,23,07,17,3.30
2009,04,23,07,18,3.30
2009,04,23,07,19,3.30
2009,04,23,07,20,3.40
2009,04,23,07,21,3.50
2009,04,23,07,22,3.60
2009,04,23,07,23,3.60
2009,04,23,07,24,3.70
2009,04,23,07,25,3.80
2009,04,23,07,26,3.80
2009,04,23,07,27,3.80
2009,04,23,07,28,3.90
2009,04,23,07,29,3.90
2009,04,23,07,30,4.00
2009,04,23,07,31,4.00
2009,04,23,07,32,4.00
2009,04,23,07,33,4.10
2009,04,23,07,34,4.10
2009,04,23,07,35,4.20
2009,04,23,07,36,4.20
2009,04,23,07,37,4.20
2009,04,23,07,38,4.20
2009,04,23,07,39,4.20
2009,04,23,07,40,4.30
2009,04,23,07,41,4.30
2009,04,23,07,42,4.40
2009,04,23,07,43,4.40
2009,04,23,07,44,4.40
2009,04,23,07,45,4.50
2009,04,23,07,46,4.50
2009,04,23,07,47,4.50
2009,04,23,07,48,4.60
2009,04,23,07,49,4.60
2009,04,23,07,50,4.60
2009,04,23,07,51,4.60
2009,04,23,07,52,4.60
2009,04,23,07,53,4.60
2009,04,23,07,54,4.60
2009,04,23,07,55,4.60
2009,04,23,07,56,4.70
2009,04,23,07,57,4.80
2009,04,23,07,58,4.80
2009,04,23,07,59,4.90
2009,04,23,08,00,5.00
2009,04,23,08,01,5.10
2009,04,23,08,02,5.20
2009,04,23,08,03,5.30
2009,04,23,08,04,5.40
2009,04,23,08,05,5.60
2009,04,23,08,06,5.70
2009,04,23,08,07,5.90
2009,04,23,08,08,6.00
2009,04,23,08,09,6.10
2009,04,23,08,10,6.20
2009,04,23,08,11,6.20
2009,04,23,08,12,6.30
2009,04,23,08,13,6.40
2009,04,23,08,14,6.40
2009,04,23,08,15,6.50
2009,04,23,08,16,6.60
2009,04,23,08,17,6.70
2009,04,23,08,18,6.70
2009,04,23,08,19,6.80
2009,04,23,08,20,7.00
2009,04,23,08,21,7.20
2009,04,23,08,22,7.40
2009,04,23,08,23,7.60
2009,04,23,08,24,7.80
2009,04,23,08,25,7.90
2009,04,23,08,26,8.00
2009,04,23,08,27,8.10
2009,04,23,08,28,8.20
2009,04,23,08,29,8.20
2009,04,23,08,30,8.40
2009,04,23,08,31,8.50
2009,04,23,08,32,8.60
2009,04,23,08,33,8.60
2009,04,23,08,34,8.70
2009,04,23,08,35,8.70
2009,04,23,08,36,8.70
2009,04,23,08,37,8.70
2009,04,23,08,38,8.70
2009,04,23,08,39,8.70
2009,04,23,08,40,8.70
2009,04,23,08,41,8.60
2009,04,23,08,42,8.50
2009,04,23,08,43,8.40
2009,04,23,08,44,8.40
2009,04,23,08,45,8.40
2009,04,23,08,46,8.40
2009,04,23,08,47,8.50
2009,04,23,08,48,8.50
2009,04,23,08,49,8.60
2009,04,23,08,50,8.60
2009,04,23,08,51,8.60
2009,04,23,08,52,8.50
2009,04,23,08,53,8.50
2009,04,23,08,54,8.40
2009,04,23,08,55,8.30
2009,04,23,08,56,8.30
2009,04,23,08,57,8.30
2009,04,23,08,58,8.30
2009,04,23,08,59,8.30
2009,04,23,09,00,8.30
2009,04,23,09,01,8.40
2009,04,23,09,02,8.50
2009,04,23,09,03,8.50
2009,04,23,09,04,8.50
2009,04,23,09,05,8.40
2009,04,23,09,06,8.30
2009,04,23,09,07,8.20
2009,04,23,09,08,8.30
2009,04,23,09,09,8.40
2009,04,23,09,10,8.40
2009,04,23,09,11,8.50
2009,04,23,09,12,8.50
2009,04,23,09,13,8.50
2009,04,23,09,14,8.50
2009,04,23,09,15,8.40
2009,04,23,09,16,8.40
2009,04,23,09,17,8.40
2009,04,23,09,18,8.50
2009,04,23,09,19,8.50
2009,04,23,09,20,8.30
2009,04,23,09,21,8.20
2009,04,23,09,22,8.20
2009,04,23,09,23,8.30
2009,04,23,09,24,8.40
2009,04,23,09,25,8.50
2009,04,23,09,26,8.50
2009,04,23,09,27,8.50
2009,04,23,09,28,8.50
2009,04,23,09,29,8.50
2009,04,23,09,30,8.60
2009,04,23,09,31,8.70
2009,04,23,09,32,8.90
2009,04,23,09,33,8.90
2009,04,23,09,34,8.80
2009,04,23,09,35,8.60
2009,04,23,09,36,8.50
2009,04,23,09,37,8.40
2009,04,23,09,38,8.30
2009,04,23,09,39,8.20
2009,04,23,09,40,8.20
2009,04,23,09,41,8.20
2009,04,23,09,42,8.20
2009,04,23,09,43,8.20
2009,04,23,09,44,8.20
2009,04,23,09,45,8.20
2009,04,23,09,46,8.20
2009,04,23,09,47,8.20
2009,04,23,09,48,8.10
2009,04,23,09,49,8.20
2009,04,23,09,50,8.30
2009,04,23,09,51,8.40
2009,04,23,09,52,8.50
2009,04,23,09,53,8.50
2009,04,23,09,54,8.50
2009,04,23,09,55,8.60
2009,04,23,09,56,8.60
2009,04,23,09,57,8.70
2009,04,23,09,58,8.70
2009,04,23,09,59,8.70
2009,04,23,10,00,8.70
2009,04,23,10,01,8.60
2009,04,23,10,02,8.40
2009,04,23,10,03,8.30
2009,04,23,10,04,8.30
2009,04,23,10,05,8.40
2009,04,23,10,06,8.50
2009,04,23,10,07,8.40
2009,04,23,10,08,8.30
2009,04,23,10,09,8.30
2009,04,23,10,10,8.40
2009,04,23,10,11,8.40
2009,04,23,10,12,8.60
2009,04,23,10,13,8.80
2009,04,23,10,14,8.80
2009,04,23,10,15,8.90
2009,04,23,10,16,9.00
2009,04,23,10,17,9.00
2009,04,23,10,18,9.00
2009,04,23,10,19,9.00
2009,04,23,10,20,9.10
2009,04,23,10,21,9.20
2009,04,23,10,22,9.20
2009,04,23,10,23,9.10
2009,04,23,10,24,9.00
2009,04,23,10,25,8.90
2009,04,23,10,26,8.90
2009,04,23,10,27,8.80
2009,04,23,10,28,8.70
2009,04,23,10,29,8.80
2009,04,23,10,30,8.90
2009,04,23,10,31,9.00
2009,04,23,10,32,9.10
2009,04,23,10,33,9.20
2009,04,23,10,34,9.30
2009,04,23,10,35,9.40
2009,04,23,10,36,9.20
2009,04,23,10,37,9.20
2009,04,23,10,38,9.20
2009,04,23,10,39,9.20
2009,04,23,10,40,9.20
2009,04,23,10,41,9.20
2009,04,23,10,42,9.40
2009,04,23,10,43,9.50
2009,04,23,10,44,9.70
2009,04,23,10,45,9.80
2009,04,23,10,46,9.80
2009,04,23,10,47,9.70
2009,04,23,10,48,9.60
2009,04,23,10,49,9.40
2009,04,23,10,50,9.20
2009,04,23,10,51,9.00
2009,04,23,10,52,8.90
2009,04,23,10,53,8.90
2009,04,23,10,54,8.90
2009,04,23,10,55,8.80
2009,04,23,10,56,8.70
2009,04,23,10,57,8.70
2009,04,23,10,58,8.70
2009,04,23,10,59,8.60
2009,04,23,11,00,8.70
2009,04,23,11,01,8.80
2009,04,23,11,02,8.80
2009,04,23,11,03,8.90
2009,04,23,11,04,8.90
2009,04,23,11,05,9.10
2009,04,23,11,06,9.20
2009,04,23,11,07,9.50
2009,04,23,11,08,9.70
2009,04,23,11,09,9.60
2009,04,23,11,10,9.50
2009,04,23,11,11,9.30
2009,04,23,11,12,9.20
2009,04,23,11,13,9.10
2009,04,23,11,14,9.10
2009,04,23,11,15,9.10
2009,04,23,11,16,9.20
2009,04,23,11,17,9.20
2009,04,23,11,18,9.30
2009,04,23,11,19,9.40
2009,04,23,11,20,9.40
2009,04,23,11,21,9.30
2009,04,23,11,22,9.20
2009,04,23,11,23,9.20
2009,04,23,11,24,9.20
2009,04,23,11,25,9.20
2009,04,23,11,26,9.10
2009,04,23,11,27,9.10
2009,04,23,11,28,9.00
2009,04,23,11,29,8.90
2009,04,23,11,30,8.80
2009,04,23,11,31,8.70
2009,04,23,11,32,8.70
2009,04,23,11,33,8.70
2009,04,23,11,34,8.70
2009,04,23,11,35,8.60
2009,04,23,11,36,8.60
2009,04,23,11,37,8.50
2009,04,23,11,38,8.50
2009,04,23,11,39,8.40
2009,04,23,11,40,8.40
2009,04,23,11,41,8.30
2009,04,23,11,42,8.20
2009,04,23,11,43,8.20
2009,04,23,11,44,8.20
2009,04,23,11,45,8.20
2009,04,23,11,46,8.20
2009,04,23,11,47,8.00
2009,04,23,11,48,8.00
2009,04,23,11,49,7.90
2009,04,23,11,50,8.00
2009,04,23,11,51,8.00
2009,04,23,11,52,8.00
2009,04,23,11,53,8.00
2009,04,23,11,54,8.00
2009,04,23,11,55,8.00
2009,04,23,11,56,8.00
2009,04,23,11,57,8.00
2009,04,23,11,58,7.90
2009,04,23,11,59,7.90
2009,04,23,12,00,7.90
2009,04,23,12,01,7.90
2009,04,23,12,02,7.90
2009,04,23,12,03,7.80
2009,04,23,12,04,7.80
2009,04,23,12,05,7.80
2009,04,23,12,06,7.80
2009,04,23,12,07,7.80
2009,04,23,12,08,7.80
2009,04,23,12,09,7.80
2009,04,23,12,10,7.90
2009,04,23,12,11,7.90
2009,04,23,12,12,8.00
2009,04,23,12,13,8.00
2009,04,23,12,14,8.20
2009,04,23,12,15,8.20
2009,04,23,12,16,8.20
2009,04,23,12,17,8.20
2009,04,23,12,18,8.30
2009,04,23,12,19,8.40
2009,04,23,12,20,8.40
2009,04,23,12,21,8.50
2009,04,23,12,22,8.50
2009,04,23,12,23,8.70
2009,04,23,12,24,8.70
2009,04,23,12,25,8.80
2009,04,23,12,26,8.90
2009,04,23,12,27,9.00
2009,04,23,12,28,9.10
2009,04,23,12,29,9.20
2009,04,23,12,30,9.30
2009,04,23,12,31,9.40
2009,04,23,12,32,9.40
2009,04,23,12,33,9.40
2009,04,23,12,34,9.40
2009,04,23,12,35,9.40
2009,04,23,12,36,9.40
2009,04,23,12,37,9.30
2009,04,23,12,38,9.30
2009,04,23,12,39,9.30
2009,04,23,12,40,9.40
2009,04,23,12,41,9.50
2009,04,23,12,42,9.50
2009,04,23,12,43,9.60
2009,04,23,12,44,9.60
2009,04,23,12,45,9.70
2009,04,23,12,46,9.70
2009,04,23,12,47,9.70
2009,04,23,12,48,9.70
2009,04,23,12,49,9.70
2009,04,23,12,50,9.80
2009,04,23,12,51,9.80
2009,04,23,12,52,9.80
2009,04,23,12,53,9.70
2009,04,23,12,54,9.80
2009,04,23,12,55,9.80
2009,04,23,12,56,9.80
2009,04,23,12,57,9.90
2009,04,23,12,58,10.10
2009,04,23,12,59,10.10
2009,04,23,13,00,10.00
2009,04,23,13,01,9.90
2009,04,23,13,02,10.10
2009,04,23,13,03,10.10
2009,04,23,13,04,10.10
2009,04,23,13,05,9.90
2009,04,23,13,06,9.80
2009,04,23,13,07,9.90
2009,04,23,13,08,9.80
2009,04,23,13,09,9.80
2009,04,23,13,10,9.70
2009,04,23,13,11,9.70
2009,04,23,13,12,9.80
2009,04,23,13,13,9.70
2009,04,23,13,14,9.80
2009,04,23,13,15,9.90
2009,04,23,13,16,10.00
2009,04,23,13,17,10.10
2009,04,23,13,18,10.10
2009,04,23,13,19,10.20
2009,04,23,13,20,10.10
2009,04,23,13,21,10.10
2009,04,23,13,22,10.10
2009,04,23,13,23,10.10
2009,04,23,13,24,10.10
2009,04,23,13,25,9.90
2009,04,23,13,26,9.90
2009,04,23,13,27,10.00
2009,04,23,13,28,10.10
2009,04,23,13,29,10.10
2009,04,23,13,30,10.00
2009,04,23,13,31,9.90
2009,04,23,13,32,9.90
2009,04,23,13,33,9.90
2009,04,23,13,34,9.90
2009,04,23,13,35,10.00
2009,04,23,13,36,9.90
2009,04,23,13,37,9.90
2009,04,23,13,38,9.90
2009,04,23,13,39,9.90
2009,04,23,13,40,9.80
2009,04,23,13,41,9.80
2009,04,23,13,42,9.80
2009,04,23,13,43,9.90
2009,04,23,13,44,9.90
2009,04,23,13,45,9.90
2009,04,23,13,46,9.90
2009,04,23,13,47,10.00
2009,04,23,13,48,10.10
2009,04,23,13,49,10.10
2009,04,23,13,50,10.10
2009,04,23,13,51,10.10
2009,04,23,13,52,10.10
2009,04,23,13,53,10.30
2009,04,23,13,54,10.40
2009,04,23,13,55,10.50
2009,04,23,13,56,10.60
2009,04,23,13,57,10.60
2009,04,23,13,58,10.60
2009,04,23,13,59,10.60
2009,04,23,14,00,10.80
2009,04,23,14,01,10.80
2009,04,23,14,02,10.90
2009,04,23,14,03,10.90
2009,04,23,14,04,10.90
2009,04,23,14,05,10.90
2009,04,23,14,06,10.90
2009,04,23,14,07,10.90
2009,04,23,14,08,10.90
2009,04,23,14,09,10.90
2009,04,23,14,10,10.90
2009,04,23,14,11,10.90
2009,04,23,14,12,11.10
2009,04,23,14,13,11.10
2009,04,23,14,14,11.10
2009,04,23,14,15,11.10
2009,04,23,14,16,11.10
2009,04,23,14,17,11.20
2009,04,23,14,18,11.30
2009,04,23,14,19,11.20
2009,04,23,14,20,11.10
2009,04,23,14,21,10.90
2009,04,23,14,22,10.80
2009,04,23,14,23,10.70
2009,04,23,14,24,10.70
2009,04,23,14,25,10.70
2009,04,23,14,26,10.90
2009,04,23,14,27,11.00
2009,04,23,14,28,11.10
2009,04,23,14,29,11.10
2009,04,23,14,30,11.10
2009,04,23,14,31,11.20
2009,04,23,14,32,11.10
2009,04,23,14,33,11.10
2009,04,23,14,34,11.10
2009,04,23,14,35,11.00
2009,04,23,14,36,10.90
2009,04,23,14,37,10.90
2009,04,23,14,38,10.90
2009,04,23,14,39,10.90
2009,04,23,14,40,11.10
2009,04,23,14,41,11.10
2009,04,23,14,42,10.90
2009,04,23,14,43,10.90
2009,04,23,14,44,10.90
2009,04,23,14,45,11.00
2009,04,23,14,46,11.10
2009,04,23,14,47,11.20
2009,04,23,14,48,11.30
2009,04,23,14,49,11.50
2009,04,23,14,50,11.60
2009,04,23,14,51,11.70
2009,04,23,14,52,11.80
2009,04,23,14,53,11.80
2009,04,23,14,54,11.80
2009,04,23,14,55,11.60
2009,04,23,14,56,11.60
2009,04,23,14,57,11.60
2009,04,23,14,58,11.60
2009,04,23,14,59,11.60
2009,04,23,15,00,11.60
2009,04,23,15,01,11.60
2009,04,23,15,02,11.60
2009,04,23,15,03,11.60
2009,04,23,15,04,11.60
2009,04,23,15,05,11.60
2009,04,23,15,06,11.50
2009,04,23,15,07,11.40
2009,04,23,15,08,11.60
2009,04,23,15,09,11.70
2009,04,23,15,10,11.70
2009,04,23,15,11,11.70
2009,04,23,15,12,11.80
2009,04,23,15,13,11.80
2009,04,23,15,14,11.80
2009,04,23,15,15,11.80
2009,04,23,15,16,11.80
2009,04,23,15,17,11.70
2009,04,23,15,18,11.60
2009,04,23,15,19,11.60
2009,04,23,15,20,11.60
2009,04,23,15,21,11.60
2009,04,23,15,22,11.60
2009,04,23,15,23,11.50
2009,04,23,15,24,11.40
2009,04,23,15,25,11.40
2009,04,23,15,26,11.40
2009,04,23,15,27,11.40
2009,04,23,15,28,11.40
2009,04,23,15,29,11.40
2009,04,23,15,30,11.40
2009,04,23,15,31,11.40
2009,04,23,15,32,11.40
2009,04,23,15,33,11.40
2009,04,23,15,34,11.40
2009,04,23,15,35,11.30
2009,04,23,15,36,11.00
2009,04,23,15,37,10.90
2009,04,23,15,38,10.80
2009,04,23,15,39,10.60
2009,04,23,15,40,10.40
2009,04,23,15,41,10.30
2009,04,23,15,42,10.20
2009,04,23,15,43,10.20
2009,04,23,15,44,10.10
2009,04,23,15,45,9.90
2009,04,23,15,46,9.90
2009,04,23,15,47,9.80
2009,04,23,15,48,9.80
2009,04,23,15,49,9.80
2009,04,23,15,50,9.80
2009,04,23,15,51,9.80
2009,04,23,15,52,9.80
2009,04,23,15,53,9.80
2009,04,23,15,54,9.70
2009,04,23,15,55,9.70
2009,04,23,15,56,9.70
2009,04,23,15,57,9.70
2009,04,23,15,58,9.70
2009,04,23,15,59,9.70
2009,04,23,16,00,9.70
2009,04,23,16,01,9.80
2009,04,23,16,02,9.90
2009,04,23,16,03,10.10
2009,04,23,16,04,10.20
2009,04,23,16,05,10.20
2009,04,23,16,06,10.20
2009,04,23,16,07,10.20
2009,04,23,16,08,10.10
2009,04,23,16,09,10.10
2009,04,23,16,10,10.10
2009,04,23,16,11,10.10
2009,04,23,16,12,10.00
2009,04,23,16,13,9.90
2009,04,23,16,14,9.90
2009,04,23,16,15,9.90
2009,04,23,16,16,9.90
2009,04,23,16,17,9.90
2009,04,23,16,18,9.90
2009,04,23,16,19,9.90
2009,04,23,16,20,9.90
2009,04,23,16,21,9.90
2009,04,23,16,22,9.90
2009,04,23,16,23,10.00
2009,04,23,16,24,10.10
2009,04,23,16,25,10.10
2009,04,23,16,26,10.10
2009,04,23,16,27,10.10
2009,04,23,16,28,10.20
2009,04,23,16,29,10.20
2009,04,23,16,30,10.30
2009,04,23,16,31,10.40
2009,04,23,16,32,10.40
2009,04,23,16,33,10.60
2009,04,23,16,34,10.70
2009,04,23,16,35,10.70
2009,04,23,16,36,10.70
2009,04,23,16,37,10.70
2009,04,23,16,38,10.80
2009,04,23,16,39,10.80
2009,04,23,16,40,10.90
2009,04,23,16,41,11.00
2009,04,23,16,42,11.20
2009,04,23,16,43,11.30
2009,04,23,16,44,11.40
2009,04,23,16,45,11.50
2009,04,23,16,46,11.60
2009,04,23,16,47,11.70
2009,04,23,16,48,11.70
2009,04,23,16,49,11.70
2009,04,23,16,50,11.80
2009,04,23,16,51,11.80
2009,04,23,16,52,11.80
2009,04,23,16,53,11.80
2009,04,23,16,54,11.70
2009,04,23,16,55,11.70
2009,04,23,16,56,11.70
2009,04,23,16,57,11.80
2009,04,23,16,58,11.90
2009,04,23,16,59,11.90
2009,04,23,17,00,11.90
2009,04,23,17,01,11.80
2009,04,23,17,02,11.80
2009,04,23,17,03,11.80
2009,04,23,17,04,11.80
2009,04,23,17,05,11.90
2009,04,23,17,06,11.90
2009,04,23,17,07,11.80
2009,04,23,17,08,11.80
2009,04,23,17,09,11.80
2009,04,23,17,10,11.90
2009,04,23,17,11,11.90
2009,04,23,17,12,11.90
2009,04,23,17,13,12.00
2009,04,23,17,14,12.00
2009,04,23,17,15,12.10
2009,04,23,17,16,12.10
2009,04,23,17,17,12.20
2009,04,23,17,18,12.20
2009,04,23,17,19,12.30
2009,04,23,17,20,12.30
2009,04,23,17,21,12.20
2009,04,23,17,22,12.10
2009,04,23,17,23,12.10
2009,04,23,17,24,12.20
2009,04,23,17,25,12.20
2009,04,23,17,26,12.10
2009,04,23,17,27,12.10
2009,04,23,17,28,12.10
2009,04,23,17,29,12.20
2009,04,23,17,30,12.20
2009,04,23,17,31,12.30
2009,04,23,17,32,12.20
2009,04,23,17,33,12.10
2009,04,23,17,34,12.10
2009,04,23,17,35,12.00
2009,04,23,17,36,12.00
2009,04,23,17,37,12.10
2009,04,23,17,38,12.20
2009,04,23,17,39,12.20
2009,04,23,17,40,12.30
2009,04,23,17,41,12.30
2009,04,23,17,42,12.30
2009,04,23,17,43,12.30
2009,04,23,17,44,12.40
2009,04,23,17,45,12.50
2009,04,23,17,46,12.50
2009,04,23,17,47,12.50
2009,04,23,17,48,12.50
2009,04,23,17,49,12.50
2009,04,23,17,50,12.50
2009,04,23,17,51,12.50
2009,04,23,17,52,12.50
2009,04,23,17,53,12.60
2009,04,23,17,54,12.60
2009,04,23,17,55,12.50